Dauntless Aviation
Greetings, Guest! To participate, [sign up for a free account] or [log in]
Airports Europe United Kingdom
EGLC
LCY

London City

London, UNITED KINGDOM

Airport Info
Edit

Location

Latitude / Longitude: 51°30'18"N / 0°3'12"E
  51°30.3'N / 0°3.21'E
  51.5050 / 0.0535

Nearby radio navigation aids

LCY CITY NDB on field.

Runway Information

Runway 10 /28

Dimensions: 4948 x 98 ft.
Surface: ASP
 
Runway 10
Runway 28
Latitude: 51.505528 51.504922
Longitude: 0.045753 0.064953
Elevation: 16 ft. 16 ft.
Runway true heading: 91.1 271.1
 

Instrument Procedures

  Control Zone and Control Area Chart
  Aircraft Parking/Docking Chart
  Aerodrome Chart

STARs (Standard Terminal Arrivals)

  STAR via SPEAR (Northwest)
  STAR via ALKIN (South)
  STAR via SPEAR (East)
  STAR via SPEAR (West)
  STAR via SPEAR (Alternate Holding at LOGAN and ALKIN)

IAPs (Instrument Approach Procedures)

  LOC/DME/NDB (L) Rwy 27 (Aircraft CAT A/B/C)
  Visual Approach Profile Rwy 27
  ILS (5.5°GP) /DME/NDB (L) Rwy 27 (Aircraft CAT A/B/C)
  Visual Approach Profile Rwy 09
  LOC/DME/NDB (L) Rwy 09
  ATC Surveillance Minimum Altitude Chart
  ILS (5.5°GP) /DME/NDB (L) Rwy 09 (Aircraft CAT A/B/C)

Departure Procedures

  SID DOVER/LYDD
  SID CLACTON
  SID SOUTHAMPTON
  SID BROOKMANS PARK/COMPTON
Satellite photo at:
Airport distance calculator
From:
Weather Reports

METAR

EGLC

EGLC 311220Z 18007KT 150V210 CAVOK 23/13 Q1017
EGKB
11.4nm S
EGKB 311220Z 17012KT CAVOK 21/13 Q1017
EGWU
17.8nm W
EGWU 311150Z 19007KT CAVOK 21/14 Q1017 BLU NOSIG
EGLL
18.9nm SW
EGLL 311220Z 19010KT 160V230 CAVOK 21/14 Q1017
EGSS
23.5nm N
EGSS 311220Z 17010KT CAVOK 19/15 Q1017
EGKK
23.8nm S
EGKK 311220Z 16005KT 120V200 CAVOK 22/14 Q1017

TAF

EGLC
TAF EGLC 311058Z 3112/3121 15009KT CAVOK PROB30 3119/3121 8000
EGKB
11.4nm S
TAF EGKB 311058Z 3112/3121 18012KT CAVOK TEMPO 3118/3121 7000
EGWU
17.8nm W
TAF EGWU 311051Z 3112/0106 18010KT CAVOK BECMG 0101/0103 BKN012 TEMPO 0103/0105 7000 -RA SCT006
EGLL
18.9nm SW
TAF EGLL 311058Z 3112/0118 17008KT CAVOK BECMG 3117/3120 8000 PROB30 3122/0103 4500 BR TEMPO 0103/0108 4000 RADZ BKN009 BECMG 0106/0109 23010KT 9999 BKN025
EGSS
23.5nm N
TAF EGSS 311059Z 3112/0118 17013KT 9999 FEW040 PROB30 TEMPO 3112/3118 8000 BECMG 3118/3121 6000 PROB30 TEMPO 3121/0104 3500 BR TEMPO 0104/0108 4000 -RA BR BKN008 BECMG 0108/0111 9999 23010KT
EGKK
23.8nm S
TAF EGKK 311058Z 3112/0118 17010KT 9999 FEW040 BECMG 3118/3121 7000 TEMPO 0103/0110 -RA BKN012 PROB30 TEMPO 0105/0108 4000 RADZ BR BKN008 BECMG 0106/0109 24010KT BECMG 0109/0112 9999
Safelog

 

Dauntless Aviation

© 2007-2014 Dauntless Aviation, all rights reserved
Information provided via PilotNav comes from a variety of official and unofficial data sources. As errors are possible, do not use PilotNav for primary flight planning purposes. Verify any information that you receive via PilotNav with current and canonical charts and other official documents. The material in this database is subject to database copyrights held by Dauntless Aviation and may not be copied without the express permission of Dauntless Aviation - licenses for use of part of all of this data are available for purchase; enquire via the Dauntless Aviation helpdesk. A number of mechanisms and markers exist in the database to protect against and identify infringement / copyright. Automated queries against this website are stictly prohibited, and all activity is logged and analyzed.